カタログに戻る

STARLINK-5130

運用中通信VLEO
NORAD 53997·PAYLOAD·🇺🇸 United States

打ち上げ Oct 5, 2022 から Vandenberg Space Force Base

Loading…

次のパス (今後24時間)

TLE

最新Source: CelesTrak SupGP

元期: Sep 15, 2026, 02:32 UTC

1 53997C 22125AK  26258.10604167 -.00071560  00000+0 -21144-2 0  2585
2 53997  53.1590  61.1787 0001045  86.2418 117.6685 15.34424058    18

AllMySatでSTARLINK-5130をリアルタイム追跡

Download on the App Store